Honolulu, HI

12:34 PM HST on December 13, 2017 (GMT -1000)
Honolulu International

Weather History for PHNL - August, 2014

Change the Weather History Date:

Saturday, August 16, 2014

  Actual Average Record
Temperature  
Mean Temperature 83 °F 82 °F  
Max Temperature 89 °F 89 °F 92 °F (1968)
Min Temperature 77 °F 75 °F 68 °F (1974)
Degree Days  
Heating Degree Days 0 0  
Month to date heating degree days 0 0  
Since 1 June heating degree days 0 0  
Since 1 July heating degree days 0 0  
Cooling Degree Days 18 17  
Month to date cooling degree days 285 272  
Year to date cooling degree days 2897 2732  
Since 1 June cooling degree days 1288 1230  
Growing Degree Days 33 (Base 50)    
Moisture  
Dew Point 66 °F    
Average Humidity 60    
Maximum Humidity 74    
Minimum Humidity 46    
Precipitation  
Precipitation T in 0.02 in 0.54 in (1965)
Month to date precipitation 0.44 0.29  
Year to date precipitation 12.11 8.63  
Snow  
Snow 0.00 in - - ()
Month to date snowfall 0.0  
Since 1 June snowfall 0.0  
Since 1 July snowfall 0.0  
Snow Depth 0.00 in    
Sea Level Pressure  
Sea Level Pressure 29.99 in    
Wind  
Wind Speed 13 mph (ENE)    
Max Wind Speed 22 mph    
Max Gust Speed 29 mph    
Visibility 10 miles    
Events      
T = Trace of Precipitation, MM = Missing Value Source: NWS Daily Summary

Daily Weather History Graph

Daily Weather History Graph

Search for Another Location

Airport or City:

Trip Planner

Search our weather history database for the weather conditions in past years. The results will help you decide how hot, cold, wet, or windy it might be!

Date:

Astronomy

Aug. 16, 2014 Rise Set
Actual Time 6:10 AM HST 7:00 PM HST
Civil Twilight 5:47 AM HST 7:23 PM HST
Nautical Twilight 5:20 AM HST 7:51 PM HST
Astronomical Twilight 4:52 AM HST 8:18 PM HST
Moon 11:49 PM HST (8/16) 12:13 PM HST (8/16)
Length of Visible Light 13h 36m
Length of Day
12h 50m
Waning Gibbous, 56% of the Moon is Illuminated
Aug 16
Waning Gibbous
Aug 17
Last Quarter
Aug 25
New
Sep 2
First Quarter
Sep 8
Full

Hourly Weather History & Observations

Time (HST) Temp. Heat Index Dew Point Humidity Pressure Visibility Wind Dir Wind Speed Gust Speed Precip Events Conditions
12:53 AM 79.0 °F - 64.9 °F 62% 29.99 in 10.0 mi ENE 11.5 mph - N/A   Scattered Clouds
1:53 AM 79.0 °F - 64.9 °F 62% 29.98 in 10.0 mi ENE 10.4 mph - N/A   Scattered Clouds
2:53 AM 78.1 °F - 66.9 °F 68% 29.97 in 10.0 mi East 8.1 mph - N/A   Mostly Cloudy
3:53 AM 78.1 °F - 66.9 °F 68% 29.96 in 10.0 mi ENE 8.1 mph - N/A   Mostly Cloudy
4:53 AM 79.0 °F - 66.9 °F 66% 29.97 in 10.0 mi ENE 10.4 mph - N/A   Mostly Cloudy
5:53 AM 77.0 °F - 68.0 °F 74% 29.98 in 10.0 mi ENE 10.4 mph - 0.00 in   Mostly Cloudy
6:53 AM 78.1 °F - 68.0 °F 71% 29.99 in 10.0 mi NE 9.2 mph - N/A   Mostly Cloudy
7:53 AM 79.0 °F - 68.0 °F 69% 30.00 in 10.0 mi ENE 12.7 mph - 0.00 in   Mostly Cloudy
8:53 AM 82.0 °F 84.1 °F 66.0 °F 58% 30.01 in 10.0 mi ENE 12.7 mph 20.7 mph N/A   Mostly Cloudy
9:53 AM 84.0 °F 86.3 °F 66.0 °F 55% 30.02 in 10.0 mi ENE 15.0 mph - N/A   Mostly Cloudy
10:53 AM 86.0 °F 87.3 °F 64.0 °F 48% 30.01 in 10.0 mi ENE 13.8 mph 20.7 mph N/A   Scattered Clouds
11:53 AM 84.9 °F 86.6 °F 64.9 °F 51% 30.01 in 10.0 mi ENE 15.0 mph 23.0 mph N/A   Mostly Cloudy
12:53 PM 88.0 °F 89.6 °F 64.9 °F 46% 29.99 in 10.0 mi ENE 16.1 mph 25.3 mph N/A   Mostly Cloudy
1:53 PM 88.0 °F 89.6 °F 64.9 °F 46% 29.98 in 10.0 mi East 15.0 mph 26.5 mph N/A   Mostly Cloudy
2:53 PM 88.0 °F 89.3 °F 64.0 °F 45% 29.97 in 10.0 mi ENE 20.7 mph 25.3 mph N/A   Mostly Cloudy
3:53 PM 86.0 °F 87.3 °F 64.0 °F 48% 29.96 in 10.0 mi NNE 12.7 mph 18.4 mph N/A   Scattered Clouds
4:53 PM 86.0 °F 86.8 °F 63.0 °F 46% 29.96 in 10.0 mi ENE 15.0 mph - N/A   Scattered Clouds
5:53 PM 84.0 °F 84.9 °F 63.0 °F 49% 29.97 in 10.0 mi ENE 15.0 mph 21.9 mph N/A   Scattered Clouds
6:53 PM 82.0 °F 83.8 °F 64.9 °F 56% 29.99 in 10.0 mi ENE 13.8 mph - N/A   Scattered Clouds
7:53 PM 80.1 °F 82.1 °F 66.0 °F 62% 30.00 in 10.0 mi NE 10.4 mph - N/A   Scattered Clouds
8:53 PM 80.1 °F 82.1 °F 66.0 °F 62% 30.01 in 10.0 mi NE 12.7 mph 20.7 mph N/A   Scattered Clouds
9:53 PM 80.1 °F 81.9 °F 64.9 °F 60% 30.03 in 10.0 mi NE 8.1 mph 18.4 mph N/A   Scattered Clouds
10:53 PM 80.1 °F 82.1 °F 66.0 °F 62% 30.03 in 10.0 mi NE 15.0 mph - N/A   Scattered Clouds
11:53 PM 79.0 °F - 66.0 °F 64% 30.02 in 10.0 mi ENE 13.8 mph 20.7 mph N/A   Partly Cloudy